Weather History for KTCC - October, 2013

Change the Weather History Date:

Monday, October 7, 2013

  Actual Average Record
Temperature  
Mean Temperature 62 °F -  
Max Temperature 82 °F 77 °F 95 °F (1979)
Min Temperature 43 °F 47 °F 33 °F (1948)
Degree Days  
Heating Degree Days 3    
Growing Degree Days 12 (Base 50)    
Moisture  
Dew Point 26 °F    
Average Humidity 29    
Maximum Humidity 53    
Minimum Humidity 11    
Precipitation  
Precipitation 0.00 in - - ()
Sea Level Pressure  
Sea Level Pressure 30.07 in    
Wind  
Wind Speed 8 mph (SW)    
Max Wind Speed 21 mph    
Max Gust Speed 25 mph    
Visibility 10 miles    
Events      
Averages and records for this station are not official NWS values.
T = Trace of Precipitation, MM = Missing Value Source: NWS Daily Summary

Daily Weather History Graph

Daily Weather History Graph

Search for Another Location

Airport or City:

Trip Planner

Search our weather history database for the weather conditions in past years. The results will help you decide how hot, cold, wet, or windy it might be!

Date:

Astronomy

Oct. 07, 2013 Rise Set
Actual Time 6:54 AM MDT 6:29 PM MDT
Civil Twilight 6:28 AM MDT 6:54 PM MDT
Nautical Twilight 5:59 AM MDT 7:24 PM MDT
Astronomical Twilight 5:29 AM MDT 7:53 PM MDT
Moon 9:39 AM MDT (10/7) 8:23 PM MDT (10/7)
Length of Visible Light 12h 26m
Length of Day
11h 35m
Waxing Crescent, 9% of the Moon is Illuminated
Oct 7
Waxing Crescent
Oct 11
First Quarter
Oct 18
Full
Oct 26
Last Quarter
Nov 3
New

Hourly Weather History & Observations

Time (MDT) Temp. Windchill Dew Point Humidity Pressure Visibility Wind Dir Wind Speed Gust Speed Precip Events Conditions
12:53 AM 52.0 °F - 23.0 °F 32% 30.13 in 10.0 mi West 8.1 mph - N/A   Clear
1:53 AM 44.1 °F - 26.1 °F 49% 30.15 in 10.0 mi Calm Calm - N/A   Clear
2:53 AM 44.1 °F 42.5 °F 26.1 °F 49% 30.15 in 10.0 mi NNW 3.5 mph - N/A   Clear
3:53 AM 46.0 °F - 24.1 °F 42% 30.13 in 10.0 mi Calm Calm - N/A   Clear
4:53 AM 43.0 °F 39.5 °F 26.1 °F 51% 30.14 in 10.0 mi WSW 5.8 mph - N/A   Clear
5:53 AM 43.0 °F 40.3 °F 27.0 °F 53% 30.15 in 10.0 mi West 4.6 mph - N/A   Clear
6:53 AM 43.0 °F 41.3 °F 26.1 °F 51% 30.17 in 10.0 mi WNW 3.5 mph - N/A   Clear
7:53 AM 51.1 °F - 27.0 °F 39% 30.19 in 10.0 mi West 5.8 mph - N/A   Clear
8:53 AM 55.9 °F - 28.9 °F 36% 30.18 in 10.0 mi West 4.6 mph - N/A   Clear
9:53 AM 63.0 °F - 30.0 °F 29% 30.17 in 10.0 mi SW 4.6 mph - N/A   Clear
10:53 AM 73.0 °F - 28.0 °F 19% 30.12 in 10.0 mi SW 12.7 mph 19.6 mph N/A   Clear
11:53 AM 77.0 °F - 27.0 °F 16% 30.09 in 10.0 mi SSW 15.0 mph 24.2 mph N/A   Clear
12:53 PM 78.1 °F - 26.1 °F 15% 30.06 in 10.0 mi SSW 17.3 mph 24.2 mph N/A   Clear
1:53 PM 80.1 °F - 26.1 °F 14% 30.03 in 10.0 mi SSW 15.0 mph - N/A   Clear
2:53 PM 81.0 °F - 23.0 °F 12% 29.99 in 10.0 mi SSW 20.7 mph 24.2 mph N/A   Clear
3:53 PM 81.0 °F - 21.9 °F 11% 29.96 in 10.0 mi SW 17.3 mph 25.3 mph N/A   Clear
4:53 PM 80.1 °F - 21.9 °F 12% 29.96 in 10.0 mi South 16.1 mph 25.3 mph N/A   Clear
5:53 PM 77.0 °F - 24.1 °F 14% 29.96 in 10.0 mi SSW 12.7 mph - N/A   Clear
6:53 PM 66.0 °F - 25.0 °F 21% 29.99 in 10.0 mi South 8.1 mph - N/A   Clear
7:53 PM 60.1 °F - 27.0 °F 28% 30.00 in 10.0 mi SSW 8.1 mph - N/A   Clear
8:53 PM 57.9 °F - 27.0 °F 31% 30.00 in 10.0 mi SW 9.2 mph - N/A   Clear
9:53 PM 61.0 °F - 26.1 °F 26% 29.98 in 10.0 mi SW 10.4 mph - N/A   Clear
10:53 PM 59.0 °F - 25.0 °F 27% 29.95 in 10.0 mi SW 10.4 mph - N/A   Clear
11:53 PM 57.9 °F - 24.1 °F 27% 29.93 in 10.0 mi WSW 6.9 mph - N/A   Clear